Home   Weather   Woodbridge Run   Past weeks
Flag for USA

Past Weather in Woodbridge Run, North Carolina, USA — Yesterday and Last 2 Weeks

Now
35 °F

Clear.


Feels Like: 31 °F
Forecast: 44 / 26 °F
Wind: 5 mph from Northwest

Location: Davidson County Airport

Current Time: Jan 20, 2019 at 6:52:42 pm

Latest Report: Jan 20, 2019 at 6:00 pm


Visibility: 10 mi

Pressure: 29.90 "Hg

Humidity: 36%

Dew Point: 10 °F

Location of Woodbridge RunLocation

Past Weather in Woodbridge Run — Graph

°F

Woodbridge Run Temperature Yesterday

Maximum temperature yesterday: 56 °F (at 9:00 pm)
Minimum temperature yesterday: 41 °F (at 12:00 am)
Average temperature yesterday: 48 °F

High & Low Weather Summary for the Past Weeks

 TemperatureHumidityPressure
High67 °F (Jan 8, 3:40 pm)100% (Jan 6, 7:00 am)30.47 "Hg (Jan 6, 7:00 am)
Low22 °F (Jan 11, 7:40 am)20% (Jan 9, 2:20 pm)29.41 "Hg (Jan 20, 3:40 am)
Average41 °F74%30.12 "Hg
* Reported Jan 5 5:00 pm — Jan 20 5:40 pm, Woodbridge Run. Weather by CustomWeather, © 2019

Note: Actual official high and low records may vary slightly from our data, if they occured in-between our weather recording intervals... More about our weather records

Advertising

Woodbridge Run Weather History for the Previous 24 Hours

Scroll right to see more
 ConditionsComfort  
Time TempWeatherWind HumidityBarometerVisibility
5:40 pm
Sun, Jan 20
35 °FClear.9 mph38%29.88 "Hg10 mi
5:00 pm38 °FSunny.7 mph33%29.86 "Hg10 mi
4:40 pm39 °FSunny.12 mph33%29.84 "Hg10 mi
4:20 pm40 °FSunny.9 mph35%29.82 "Hg10 mi
4:00 pm39 °FSunny.7 mph37%29.81 "Hg10 mi
3:40 pm40 °FSunny.10 mph32%29.80 "Hg10 mi
3:00 pm42 °FSunny.7 mph42%29.76 "Hg10 mi
2:20 pm42 °FSunny.9 mph44%29.74 "Hg10 mi
2:00 pm42 °FSunny.9 mph43%29.72 "Hg10 mi
1:20 pm43 °FSunny.14 mph45%29.71 "Hg10 mi
1:00 pm43 °FSunny.10 mph49%29.70 "Hg10 mi
12:40 pm42 °FSunny.14 mph48%29.70 "Hg10 mi
12:20 pm43 °FSunny.15 mph48%29.69 "Hg10 mi
12:00 pm43 °FSunny.12 mph47%29.68 "Hg10 mi
11:40 am43 °FSunny.8 mph48%29.67 "Hg10 mi
11:00 am44 °FSunny.5 mph53%29.65 "Hg10 mi
10:40 am44 °FSunny.13 mph53%29.64 "Hg10 mi
10:20 am45 °FSunny.13 mph54%29.62 "Hg10 mi
10:00 am46 °FSunny.8 mph56%29.60 "Hg10 mi
9:40 am47 °FSunny.12 mph56%29.57 "Hg10 mi
9:20 am46 °FScattered clouds.8 mph60%29.55 "Hg10 mi
9:00 am48 °FOvercast.10 mph58%29.54 "Hg10 mi
8:40 am49 °FPartly sunny.12 mph62%29.51 "Hg10 mi
8:20 am50 °FBroken clouds.6 mph66%29.50 "Hg10 mi
8:00 am50 °FCloudy.5 mph67%29.48 "Hg10 mi
7:40 am51 °FMore clouds than sun.9 mph73%29.48 "Hg10 mi
7:20 am54 °FLight rain. Overcast.8 mph96%29.47 "Hg10 mi
7:00 am54 °FOvercast.6 mph97%29.45 "Hg10 mi
6:40 am54 °FPartly cloudy.7 mph97%29.45 "Hg10 mi
6:20 am54 °FPartly cloudy.7 mph98%29.43 "Hg10 mi
6:00 am55 °FOvercast.9 mph95%29.44 "Hg10 mi
5:40 am55 °FMostly cloudy.9 mph96%29.43 "Hg10 mi
5:20 am56 °FMostly cloudy.8 mph98%29.43 "Hg10 mi
5:00 am56 °FMostly cloudy.10 mph99%29.43 "Hg10 mi
4:20 am56 °FMostly cloudy.8 mph100%29.42 "Hg10 mi
4:00 am56 °FMostly cloudy.8 mph100%29.42 "Hg10 mi
3:40 am56 °FMostly cloudy.10 mph100%29.41 "Hg10 mi
3:00 am56 °FMostly cloudy.10 mph99%29.44 "Hg10 mi
2:20 am56 °FMostly cloudy.9 mph100%29.43 "Hg10 mi
2:00 am55 °FMostly cloudy.8 mph100%29.42 "Hg10 mi
1:40 am55 °FOvercast.14 mph100%29.42 "Hg10 mi
1:20 am55 °FMostly cloudy.14 mph100%29.46 "Hg10 mi
1:00 am55 °FLight rain. Overcast.13 mph100%29.47 "Hg10 mi
12:40 am54 °FLight rain. Mostly cloudy.13 mph100%29.48 "Hg10 mi
12:00 am54 °FHeavy rain. Mostly cloudy.10 mph100%29.52 "Hg7 mi
11:40 pm
Sat, Jan 19
54 °FRain. Overcast.9 mph100%29.55 "Hg7 mi
11:20 pm54 °FLight rain. Overcast.9 mph100%29.56 "Hg7 mi
11:00 pm54 °FRain. Overcast.8 mph100%29.58 "Hg7 mi
10:40 pm55 °FRain. Mostly cloudy.8 mph100%29.60 "Hg5 mi
10:00 pm55 °FHeavy rain. Overcast.5 mph100%29.62 "Hg7 mi
9:40 pm56 °FRain. Overcast.6 mph100%29.63 "Hg7 mi
9:20 pm56 °FRain. Overcast.7 mph100%29.63 "Hg10 mi
9:00 pm56 °FLight rain. Mostly cloudy.10 mph100%29.61 "Hg10 mi
8:40 pm56 °FLight rain. Mostly cloudy.8 mph100%29.63 "Hg10 mi
8:20 pm56 °FLight rain. Mostly cloudy.8 mph100%29.65 "Hg7 mi
8:00 pm56 °FLight rain. Mostly cloudy.8 mph100%29.67 "Hg7 mi
7:40 pm56 °FRain. Mostly cloudy.8 mph100%29.67 "Hg10 mi
7:20 pm55 °FDrizzle. Overcast.6 mph100%29.68 "Hg10 mi
7:00 pm55 °FOvercast.3 mph100%29.69 "Hg10 mi
6:40 pm55 °FMostly cloudy.6 mph100%29.70 "Hg10 mi
6:20 pm54 °FLight rain. Low clouds.7 mph100%29.71 "Hg7 mi
6:00 pm54 °FMostly cloudy.7 mph100%29.72 "Hg10 mi
Weather by CustomWeather, © 2019

See weather overview

LIVE TOTAL LUNAR ECLIPSE – Watch the eclipse as it happens